Location: Isernia
(41.6000°N, 14.2330°E)
Time: 11:47:06
(UTC+02:00)

ISS - Visible Passes

Search period start: 11 May 2021 00:00
Search period end: 21 May 2021 00:00
Orbit: 418 x 421 km, 51.6° (Epoch: 11 May)

Date Brightness Start Highest point End Pass type
(mag) Time Alt. Az. Time Alt. Az. Time Alt. Az.
11 May -0.8 02:04:21 17° N 02:04:21 17° N 02:06:26 10° NNE visible
11 May -0.8 03:39:38 10° NNW 03:41:56 17° N 03:44:14 10° NE visible
11 May -2.6 05:16:04 10° NW 05:19:22 47° NNE 05:22:38 10° ESE visible
12 May -0.5 01:18:16 14° NNE 01:18:16 14° NNE 01:19:02 10° NNE visible
12 May -0.7 02:52:09 10° NNW 02:54:16 15° N 02:56:21 10° NE visible
12 May -1.8 04:28:45 10° NW 04:31:50 32° NNE 04:34:56 10° E visible
13 May -0.6 02:05:02 12° NNW 02:06:34 15° N 02:08:36 10° NE visible
13 May -1.3 03:41:26 10° NW 03:44:16 24° NNE 03:47:06 10° ENE visible
14 May -0.7 01:18:38 15° N 01:18:53 15° N 01:20:58 10° NNE visible
14 May -1.0 02:54:05 10° NW 02:56:39 20° NNE 02:59:12 10° ENE visible
14 May -3.6 04:30:31 10° NW 04:33:54 76° NE 04:37:16 10° ESE visible
14 May -2.6 21:14:28 10° S 21:17:09 22° SE 21:19:49 10° E visible
14 May -2.7 22:50:30 10° WSW 22:53:46 46° NNW 22:55:37 22° NE visible
15 May -0.7 00:28:56 10° NW 00:31:12 17° N 00:33:29 10° NNE visible
15 May -0.7 02:06:42 10° NNW 02:08:59 17° N 02:11:17 10° NE visible
15 May -2.7 03:43:08 10° NW 03:46:26 47° NNE 03:49:42 10° ESE visible
15 May -3.6 22:02:57 10° WSW 22:06:17 74° NW 22:09:39 10° NE visible
15 May -1.0 23:41:00 10° WNW 23:43:33 19° NNW 23:46:05 10° NNE visible
16 May -0.6 01:19:13 10° NNW 01:21:19 15° N 01:23:25 10° NE visible
16 May -1.9 02:55:47 10° NW 02:58:54 32° NNE 03:01:59 10° E visible
16 May -3.2 04:32:35 10° WNW 04:35:44 36° SW 04:38:51 10° SSE visible
16 May -3.8 21:15:32 10° SW 21:18:52 66° SE 21:22:12 10° ENE visible
16 May -1.3 22:53:07 10° WNW 22:55:55 24° NNW 22:58:44 10° NE visible
17 May -0.6 00:31:36 10° NW 00:33:37 15° N 00:35:38 10° NE visible
17 May -1.4 02:08:28 10° NW 02:11:19 24° NNE 02:14:09 10° ENE visible
17 May -3.9 03:45:04 10° WNW 03:48:21 64° SW 03:51:42 10° SE visible
17 May -1.8 22:05:17 10° W 22:08:20 31° NNW 22:11:24 10° NE visible
17 May -0.6 23:43:50 10° NW 23:45:55 15° N 23:48:00 10° NNE visible
18 May -0.9 01:21:07 10° NW 01:22:56 18° N 01:22:56 18° N visible
18 May -2.5 21:17:34 10° WSW 21:20:48 45° NNW 21:24:03 10° NE visible
18 May -0.7 22:55:58 10° NW 22:58:14 17° N 23:00:31 10° NNE visible
19 May -0.9 00:33:44 10° NNW 00:36:02 17° N 00:36:31 16° NNE visible
19 May -0.9 22:08:03 10° WNW 22:10:35 19° NNW 22:13:06 10° NNE visible
19 May -0.7 23:46:15 10° NNW 23:48:20 15° N 23:50:21 10° NE visible
20 May -0.7 01:22:49 10° NW 01:23:17 13° NW 01:23:17 13° NW visible
20 May -1.2 21:20:09 10° WNW 21:22:56 24° NNW 21:25:45 10° NE visible
20 May -0.7 22:58:38 10° NW 23:00:38 15° N 23:02:39 10° NE visible
